owner,sensor,date,latitude,longitude,vertical_datum,sea_water_practical_salinity,qcFlag 
TCOON,ioos:station:TCOON:127:1,2019-05-01T00:30:00Z,28.2598,-96.7737,0.0,14.8,11111222 
TCOON,ioos:station:TCOON:127:1,2019-05-01T01:30:00Z,28.2598,-96.7737,0.0,15.2,11111222 
TCOON,ioos:station:TCOON:127:1,2019-05-01T02:30:00Z,28.2598,-96.7737,0.0,14.9,11111222 
TCOON,ioos:station:TCOON:127:1,2019-05-01T03:30:00Z,28.2598,-96.7737,0.0,14.8,11111222 
TCOON,ioos:station:TCOON:127:1,2019-05-01T04:30:00Z,28.2598,-96.7737,0.0,16.0,11111222 
TCOON,ioos:station:TCOON:127:1,2019-05-01T06:00:00Z,28.2598,-96.7737,0.0,15.8,11111222 
TCOON,ioos:station:TCOON:127:1,2019-05-01T06:30:00Z,28.2598,-96.7737,0.0,15.8,11111222 
TCOON,ioos:station:TCOON:127:1,2019-05-01T07:30:00Z,28.2598,-96.7737,0.0,16.0,11111222 
TCOON,ioos:station:TCOON:127:1,2019-05-01T08:30:00Z,28.2598,-96.7737,0.0,15.6,11111222 
TCOON,ioos:station:TCOON:127:1,2019-05-01T09:30:00Z,28.2598,-96.7737,0.0,15.1,11111222 
TCOON,ioos:station:TCOON:127:1,2019-05-01T10:30:00Z,28.2598,-96.7737,0.0,14.9,11111222 
TCOON,ioos:station:TCOON:127:1,2019-05-01T11:30:00Z,28.2598,-96.7737,0.0,15.0,11111222 
TCOON,ioos:station:TCOON:127:1,2019-05-01T12:30:00Z,28.2598,-96.7737,0.0,15.4,11111222 
TCOON,ioos:station:TCOON:127:1,2019-05-01T13:30:00Z,28.2598,-96.7737,0.0,15.5,11111222 
TCOON,ioos:station:TCOON:127:1,2019-05-01T14:30:00Z,28.2598,-96.7737,0.0,15.4,11111222 
TCOON,ioos:station:TCOON:127:1,2019-05-01T15:30:00Z,28.2598,-96.7737,0.0,15.3,11111222 
TCOON,ioos:station:TCOON:127:1,2019-05-01T16:30:00Z,28.2598,-96.7737,0.0,15.4,11111222 
TCOON,ioos:station:TCOON:127:1,2019-05-01T17:30:00Z,28.2598,-96.7737,0.0,15.4,11111222 
TCOON,ioos:station:TCOON:127:1,2019-05-01T18:30:00Z,28.2598,-96.7737,0.0,15.2,11111222 
TCOON,ioos:station:TCOON:127:1,2019-05-01T19:30:00Z,28.2598,-96.7737,0.0,15.1,11111222 
TCOON,ioos:station:TCOON:127:1,2019-05-01T20:30:00Z,28.2598,-96.7737,0.0,15.0,11111222 
TCOON,ioos:station:TCOON:127:1,2019-05-01T21:30:00Z,28.2598,-96.7737,0.0,14.8,11111222 
TCOON,ioos:station:TCOON:127:1,2019-05-01T22:30:00Z,28.2598,-96.7737,0.0,14.4,11111222 
TCOON,ioos:station:TCOON:127:1,2019-05-01T23:30:00Z,28.2598,-96.7737,0.0,14.4,11111222 
TCOON,ioos:station:TCOON:127:1,2019-05-02T00:30:00Z,28.2598,-96.7737,0.0,14.4,11111222 
TCOON,ioos:station:TCOON:127:1,2019-05-02T01:30:00Z,28.2598,-96.7737,0.0,14.4,11111222 
TCOON,ioos:station:TCOON:127:1,2019-05-02T02:30:00Z,28.2598,-96.7737,0.0,14.5,11111222 
TCOON,ioos:station:TCOON:127:1,2019-05-02T03:30:00Z,28.2598,-96.7737,0.0,14.3,11111222 
TCOON,ioos:station:TCOON:127:1,2019-05-02T04:30:00Z,28.2598,-96.7737,0.0,14.3,11111222 
TCOON,ioos:station:TCOON:127:1,2019-05-02T05:30:00Z,28.2598,-96.7737,0.0,14.1,11111222 
TCOON,ioos:station:TCOON:127:1,2019-05-02T06:30:00Z,28.2598,-96.7737,0.0,13.9,11111222 
TCOON,ioos:station:TCOON:127:1,2019-05-02T07:30:00Z,28.2598,-96.7737,0.0,13.7,11111222 
TCOON,ioos:station:TCOON:127:1,2019-05-02T08:30:00Z,28.2598,-96.7737,0.0,13.6,11111222 
TCOON,ioos:station:TCOON:127:1,2019-05-02T10:30:00Z,28.2598,-96.7737,0.0,13.4,11111222 
TCOON,ioos:station:TCOON:127:1,2019-05-02T11:30:00Z,28.2598,-96.7737,0.0,13.5,11111222 
TCOON,ioos:station:TCOON:127:1,2019-05-02T12:30:00Z,28.2598,-96.7737,0.0,13.6,11111222 
TCOON,ioos:station:TCOON:127:1,2019-05-02T13:30:00Z,28.2598,-96.7737,0.0,13.6,11111222 
TCOON,ioos:station:TCOON:127:1,2019-05-02T14:30:00Z,28.2598,-96.7737,0.0,14.0,11111222 
TCOON,ioos:station:TCOON:127:1,2019-05-02T15:30:00Z,28.2598,-96.7737,0.0,13.9,11111222 
TCOON,ioos:station:TCOON:127:1,2019-05-02T16:30:00Z,28.2598,-96.7737,0.0,13.9,11111222 
TCOON,ioos:station:TCOON:127:1,2019-05-02T17:30:00Z,28.2598,-96.7737,0.0,13.9,11111222 
TCOON,ioos:station:TCOON:127:1,2019-05-02T18:30:00Z,28.2598,-96.7737,0.0,13.9,11111222 
TCOON,ioos:station:TCOON:127:1,2019-05-02T19:30:00Z,28.2598,-96.7737,0.0,13.7,11111222 
TCOON,ioos:station:TCOON:127:1,2019-05-02T20:30:00Z,28.2598,-96.7737,0.0,13.8,11111222 
TCOON,ioos:station:TCOON:127:1,2019-05-02T21:30:00Z,28.2598,-96.7737,0.0,13.8,11111222 
TCOON,ioos:station:TCOON:127:1,2019-05-02T22:30:00Z,28.2598,-96.7737,0.0,13.8,11111222 
TCOON,ioos:station:TCOON:127:1,2019-05-02T23:30:00Z,28.2598,-96.7737,0.0,13.8,11111222 
TCOON,ioos:station:TCOON:127:1,2019-05-03T00:30:00Z,28.2598,-96.7737,0.0,14.1,11111222 
TCOON,ioos:station:TCOON:127:1,2019-05-03T01:30:00Z,28.2598,-96.7737,0.0,14.3,11111222 
TCOON,ioos:station:TCOON:127:1,2019-05-03T02:30:00Z,28.2598,-96.7737,0.0,14.4,11111222 
TCOON,ioos:station:TCOON:127:1,2019-05-03T03:30:00Z,28.2598,-96.7737,0.0,14.5,11111222 
TCOON,ioos:station:TCOON:127:1,2019-05-03T04:30:00Z,28.2598,-96.7737,0.0,14.5,11111222 
TCOON,ioos:station:TCOON:127:1,2019-05-03T05:30:00Z,28.2598,-96.7737,0.0,14.4,11111222 
TCOON,ioos:station:TCOON:127:1,2019-05-03T06:30:00Z,28.2598,-96.7737,0.0,14.3,11111222 
TCOON,ioos:station:TCOON:127:1,2019-05-03T07:30:00Z,28.2598,-96.7737,0.0,14.2,11111222 
TCOON,ioos:station:TCOON:127:1,2019-05-03T08:30:00Z,28.2598,-96.7737,0.0,14.3,11111222 
TCOON,ioos:station:TCOON:127:1,2019-05-03T09:30:00Z,28.2598,-96.7737,0.0,14.3,11111222 
TCOON,ioos:station:TCOON:127:1,2019-05-03T10:30:00Z,28.2598,-96.7737,0.0,14.3,11111222 
TCOON,ioos:station:TCOON:127:1,2019-05-03T11:30:00Z,28.2598,-96.7737,0.0,14.3,11111222 
TCOON,ioos:station:TCOON:127:1,2019-05-03T12:30:00Z,28.2598,-96.7737,0.0,14.0,11111222 
TCOON,ioos:station:TCOON:127:1,2019-05-03T13:30:00Z,28.2598,-96.7737,0.0,14.1,11111222 
TCOON,ioos:station:TCOON:127:1,2019-05-03T14:30:00Z,28.2598,-96.7737,0.0,13.8,11111222 
TCOON,ioos:station:TCOON:127:1,2019-05-03T15:30:00Z,28.2598,-96.7737,0.0,14.2,11111222 
TCOON,ioos:station:TCOON:127:1,2019-05-03T16:30:00Z,28.2598,-96.7737,0.0,14.6,11111222 
TCOON,ioos:station:TCOON:127:1,2019-05-03T17:30:00Z,28.2598,-96.7737,0.0,14.4,11111222 
TCOON,ioos:station:TCOON:127:1,2019-05-03T18:30:00Z,28.2598,-96.7737,0.0,14.1,11111222 
TCOON,ioos:station:TCOON:127:1,2019-05-03T19:30:00Z,28.2598,-96.7737,0.0,13.9,11111222 
TCOON,ioos:station:TCOON:127:1,2019-05-03T20:30:00Z,28.2598,-96.7737,0.0,13.9,11111222 
TCOON,ioos:station:TCOON:127:1,2019-05-03T21:30:00Z,28.2598,-96.7737,0.0,13.8,11111222 
TCOON,ioos:station:TCOON:127:1,2019-05-03T22:30:00Z,28.2598,-96.7737,0.0,13.9,11111222 
TCOON,ioos:station:TCOON:127:1,2019-05-03T23:30:00Z,28.2598,-96.7737,0.0,13.8,11111222 
TCOON,ioos:station:TCOON:127:1,2019-05-04T00:30:00Z,28.2598,-96.7737,0.0,13.9,11111222 
TCOON,ioos:station:TCOON:127:1,2019-05-04T01:30:00Z,28.2598,-96.7737,0.0,14.0,11111222 
TCOON,ioos:station:TCOON:127:1,2019-05-04T02:30:00Z,28.2598,-96.7737,0.0,14.0,11111222 
TCOON,ioos:station:TCOON:127:1,2019-05-04T03:30:00Z,28.2598,-96.7737,0.0,13.9,11111222 
TCOON,ioos:station:TCOON:127:1,2019-05-04T04:30:00Z,28.2598,-96.7737,0.0,13.9,11111222 
TCOON,ioos:station:TCOON:127:1,2019-05-04T05:30:00Z,28.2598,-96.7737,0.0,13.9,11111222 
TCOON,ioos:station:TCOON:127:1,2019-05-04T06:30:00Z,28.2598,-96.7737,0.0,13.9,11111222 
TCOON,ioos:station:TCOON:127:1,2019-05-04T07:30:00Z,28.2598,-96.7737,0.0,13.8,11111222 
TCOON,ioos:station:TCOON:127:1,2019-05-04T08:30:00Z,28.2598,-96.7737,0.0,13.7,11111222 
TCOON,ioos:station:TCOON:127:1,2019-05-04T09:30:00Z,28.2598,-96.7737,0.0,13.7,11111222 
TCOON,ioos:station:TCOON:127:1,2019-05-04T10:30:00Z,28.2598,-96.7737,0.0,13.8,11111222 
TCOON,ioos:station:TCOON:127:1,2019-05-04T11:30:00Z,28.2598,-96.7737,0.0,13.7,11111222 
TCOON,ioos:station:TCOON:127:1,2019-05-04T12:30:00Z,28.2598,-96.7737,0.0,13.8,11111222 
TCOON,ioos:station:TCOON:127:1,2019-05-04T13:30:00Z,28.2598,-96.7737,0.0,13.8,11111222 
TCOON,ioos:station:TCOON:127:1,2019-05-04T14:30:00Z,28.2598,-96.7737,0.0,14.0,11111222 
TCOON,ioos:station:TCOON:127:1,2019-05-04T15:30:00Z,28.2598,-96.7737,0.0,14.0,11111222 
TCOON,ioos:station:TCOON:127:1,2019-05-04T16:30:00Z,28.2598,-96.7737,0.0,14.1,11111222 
TCOON,ioos:station:TCOON:127:1,2019-05-04T17:30:00Z,28.2598,-96.7737,0.0,14.0,11111222 
TCOON,ioos:station:TCOON:127:1,2019-05-04T18:30:00Z,28.2598,-96.7737,0.0,13.3,11111222 
TCOON,ioos:station:TCOON:127:1,2019-05-04T19:30:00Z,28.2598,-96.7737,0.0,14.2,11111222 
TCOON,ioos:station:TCOON:127:1,2019-05-04T20:30:00Z,28.2598,-96.7737,0.0,14.0,11111222 
TCOON,ioos:station:TCOON:127:1,2019-05-04T21:30:00Z,28.2598,-96.7737,0.0,13.9,11111222 
TCOON,ioos:station:TCOON:127:1,2019-05-04T22:30:00Z,28.2598,-96.7737,0.0,13.9,11111222 
TCOON,ioos:station:TCOON:127:1,2019-05-04T23:30:00Z,28.2598,-96.7737,0.0,13.6,11111222 
TCOON,ioos:station:TCOON:127:1,2019-05-05T00:30:00Z,28.2598,-96.7737,0.0,13.8,11111222 
TCOON,ioos:station:TCOON:127:1,2019-05-05T01:30:00Z,28.2598,-96.7737,0.0,13.8,11111222 
TCOON,ioos:station:TCOON:127:1,2019-05-05T02:30:00Z,28.2598,-96.7737,0.0,14.0,11111222 
TCOON,ioos:station:TCOON:127:1,2019-05-05T04:30:00Z,28.2598,-96.7737,0.0,14.0,11111222 
TCOON,ioos:station:TCOON:127:1,2019-05-07T05:30:00Z,28.2598,-96.7737,0.0,14.6,11111222 
TCOON,ioos:station:TCOON:127:1,2019-05-07T06:30:00Z,28.2598,-96.7737,0.0,14.7,11111222 
TCOON,ioos:station:TCOON:127:1,2019-05-07T07:30:00Z,28.2598,-96.7737,0.0,15.0,11111222 
TCOON,ioos:station:TCOON:127:1,2019-05-07T08:30:00Z,28.2598,-96.7737,0.0,15.0,11111222 
TCOON,ioos:station:TCOON:127:1,2019-05-07T09:30:00Z,28.2598,-96.7737,0.0,14.5,11111222 
TCOON,ioos:station:TCOON:127:1,2019-05-07T10:30:00Z,28.2598,-96.7737,0.0,14.5,11111222 
TCOON,ioos:station:TCOON:127:1,2019-05-07T11:30:00Z,28.2598,-96.7737,0.0,14.5,11111222 
TCOON,ioos:station:TCOON:127:1,2019-05-07T12:30:00Z,28.2598,-96.7737,0.0,14.6,11111222 
TCOON,ioos:station:TCOON:127:1,2019-05-07T13:30:00Z,28.2598,-96.7737,0.0,14.5,11111222 
TCOON,ioos:station:TCOON:127:1,2019-05-07T14:30:00Z,28.2598,-96.7737,0.0,14.3,11111222 
TCOON,ioos:station:TCOON:127:1,2019-05-07T15:30:00Z,28.2598,-96.7737,0.0,14.2,11111222 
TCOON,ioos:station:TCOON:127:1,2019-05-07T16:30:00Z,28.2598,-96.7737,0.0,14.0,11111222 
TCOON,ioos:station:TCOON:127:1,2019-05-07T17:30:00Z,28.2598,-96.7737,0.0,13.7,11111222 
TCOON,ioos:station:TCOON:127:1,2019-05-07T18:30:00Z,28.2598,-96.7737,0.0,13.8,11111222 
TCOON,ioos:station:TCOON:127:1,2019-05-07T19:30:00Z,28.2598,-96.7737,0.0,13.7,11111222 
TCOON,ioos:station:TCOON:127:1,2019-05-07T20:30:00Z,28.2598,-96.7737,0.0,13.6,11111222 
TCOON,ioos:station:TCOON:127:1,2019-05-07T21:30:00Z,28.2598,-96.7737,0.0,13.4,11111222 
TCOON,ioos:station:TCOON:127:1,2019-05-07T22:30:00Z,28.2598,-96.7737,0.0,13.2,11111222 
TCOON,ioos:station:TCOON:127:1,2019-05-07T23:30:00Z,28.2598,-96.7737,0.0,13.2,11111222 
TCOON,ioos:station:TCOON:127:1,2019-05-08T00:30:00Z,28.2598,-96.7737,0.0,13.1,11111222 
TCOON,ioos:station:TCOON:127:1,2019-05-08T01:30:00Z,28.2598,-96.7737,0.0,13.2,11111222 
TCOON,ioos:station:TCOON:127:1,2019-05-08T02:30:00Z,28.2598,-96.7737,0.0,13.5,11111222 
TCOON,ioos:station:TCOON:127:1,2019-05-08T03:30:00Z,28.2598,-96.7737,0.0,13.2,11111222 
TCOON,ioos:station:TCOON:127:1,2019-05-08T04:30:00Z,28.2598,-96.7737,0.0,12.7,11111222 
TCOON,ioos:station:TCOON:127:1,2019-05-08T05:30:00Z,28.2598,-96.7737,0.0,12.8,11111222 
TCOON,ioos:station:TCOON:127:1,2019-05-08T06:30:00Z,28.2598,-96.7737,0.0,12.7,11111222 
TCOON,ioos:station:TCOON:127:1,2019-05-08T07:30:00Z,28.2598,-96.7737,0.0,12.6,11111222 
TCOON,ioos:station:TCOON:127:1,2019-05-08T08:30:00Z,28.2598,-96.7737,0.0,12.2,11111222 
TCOON,ioos:station:TCOON:127:1,2019-05-08T09:30:00Z,28.2598,-96.7737,0.0,12.0,11111222 
TCOON,ioos:station:TCOON:127:1,2019-05-08T10:30:00Z,28.2598,-96.7737,0.0,11.9,11111222 
TCOON,ioos:station:TCOON:127:1,2019-05-08T11:30:00Z,28.2598,-96.7737,0.0,11.8,11111222 
TCOON,ioos:station:TCOON:127:1,2019-05-08T12:30:00Z,28.2598,-96.7737,0.0,11.7,11111222 
TCOON,ioos:station:TCOON:127:1,2019-05-08T13:30:00Z,28.2598,-96.7737,0.0,11.5,11111222 
TCOON,ioos:station:TCOON:127:1,2019-05-08T14:30:00Z,28.2598,-96.7737,0.0,11.3,11111222 
TCOON,ioos:station:TCOON:127:1,2019-05-08T15:30:00Z,28.2598,-96.7737,0.0,11.2,11111222 
TCOON,ioos:station:TCOON:127:1,2019-05-08T16:30:00Z,28.2598,-96.7737,0.0,11.1,11111222 
TCOON,ioos:station:TCOON:127:1,2019-05-08T17:30:00Z,28.2598,-96.7737,0.0,11.1,11111222 
TCOON,ioos:station:TCOON:127:1,2019-05-08T18:30:00Z,28.2598,-96.7737,0.0,10.9,11111222 
TCOON,ioos:station:TCOON:127:1,2019-05-08T19:30:00Z,28.2598,-96.7737,0.0,10.7,11111222 
TCOON,ioos:station:TCOON:127:1,2019-05-08T20:30:00Z,28.2598,-96.7737,0.0,10.4,11111222 
TCOON,ioos:station:TCOON:127:1,2019-05-08T21:30:00Z,28.2598,-96.7737,0.0,10.4,11111222 
TCOON,ioos:station:TCOON:127:1,2019-05-08T22:30:00Z,28.2598,-96.7737,0.0,10.8,11111222 
TCOON,ioos:station:TCOON:127:1,2019-05-08T23:30:00Z,28.2598,-96.7737,0.0,10.5,11111222 
TCOON,ioos:station:TCOON:127:1,2019-05-09T00:30:00Z,28.2598,-96.7737,0.0,9.7,11111222 
TCOON,ioos:station:TCOON:127:1,2019-05-09T01:30:00Z,28.2598,-96.7737,0.0,9.8,11111222 
TCOON,ioos:station:TCOON:127:1,2019-05-09T02:30:00Z,28.2598,-96.7737,0.0,9.4,11111222 
TCOON,ioos:station:TCOON:127:1,2019-05-09T03:30:00Z,28.2598,-96.7737,0.0,8.8,11111222 
TCOON,ioos:station:TCOON:127:1,2019-05-09T04:30:00Z,28.2598,-96.7737,0.0,7.4,11111222 
TCOON,ioos:station:TCOON:127:1,2019-05-09T05:30:00Z,28.2598,-96.7737,0.0,5.6,11111222 
TCOON,ioos:station:TCOON:127:1,2019-05-09T22:30:00Z,28.2598,-96.7737,0.0,0.8,11111222 
TCOON,ioos:station:TCOON:127:1,2019-05-09T23:30:00Z,28.2598,-96.7737,0.0,0.8,11111222 
TCOON,ioos:station:TCOON:127:1,2019-05-10T00:30:00Z,28.2598,-96.7737,0.0,0.8,11111222 
TCOON,ioos:station:TCOON:127:1,2019-05-10T01:30:00Z,28.2598,-96.7737,0.0,0.8,11111222 
TCOON,ioos:station:TCOON:127:1,2019-05-10T02:30:00Z,28.2598,-96.7737,0.0,0.8,11111222 
TCOON,ioos:station:TCOON:127:1,2019-05-10T03:30:00Z,28.2598,-96.7737,0.0,0.8,11111222 
TCOON,ioos:station:TCOON:127:1,2019-05-10T19:30:00Z,28.2598,-96.7737,0.0,0.6,11111222 
TCOON,ioos:station:TCOON:127:1,2019-05-10T20:30:00Z,28.2598,-96.7737,0.0,0.6,11111222 
TCOON,ioos:station:TCOON:127:1,2019-05-10T21:30:00Z,28.2598,-96.7737,0.0,0.6,11111222 
TCOON,ioos:station:TCOON:127:1,2019-05-10T22:30:00Z,28.2598,-96.7737,0.0,0.6,11111222 
TCOON,ioos:station:TCOON:127:1,2019-05-10T23:30:00Z,28.2598,-96.7737,0.0,0.6,11111222 
TCOON,ioos:station:TCOON:127:1,2019-05-11T00:30:00Z,28.2598,-96.7737,0.0,0.6,11111222 
TCOON,ioos:station:TCOON:127:1,2019-05-11T01:30:00Z,28.2598,-96.7737,0.0,0.6,11111222 
TCOON,ioos:station:TCOON:127:1,2019-05-11T02:30:00Z,28.2598,-96.7737,0.0,0.6,11111222 
TCOON,ioos:station:TCOON:127:1,2019-05-11T03:30:00Z,28.2598,-96.7737,0.0,0.6,11111222 
TCOON,ioos:station:TCOON:127:1,2019-05-11T04:30:00Z,28.2598,-96.7737,0.0,0.6,11111222 
TCOON,ioos:station:TCOON:127:1,2019-05-13T13:30:00Z,28.2598,-96.7737,0.0,0.6,11111222 
TCOON,ioos:station:TCOON:127:1,2019-05-13T14:30:00Z,28.2598,-96.7737,0.0,0.6,11111222 
TCOON,ioos:station:TCOON:127:1,2019-05-13T15:30:00Z,28.2598,-96.7737,0.0,0.6,11111222 
TCOON,ioos:station:TCOON:127:1,2019-05-13T16:30:00Z,28.2598,-96.7737,0.0,0.6,11111222 
TCOON,ioos:station:TCOON:127:1,2019-05-13T17:30:00Z,28.2598,-96.7737,0.0,0.6,11111222 
TCOON,ioos:station:TCOON:127:1,2019-05-13T18:30:00Z,28.2598,-96.7737,0.0,0.6,11111222 
TCOON,ioos:station:TCOON:127:1,2019-05-13T19:30:00Z,28.2598,-96.7737,0.0,16.7,11111222 
TCOON,ioos:station:TCOON:127:1,2019-05-13T20:30:00Z,28.2598,-96.7737,0.0,16.7,11111222 
TCOON,ioos:station:TCOON:127:1,2019-05-13T21:30:00Z,28.2598,-96.7737,0.0,16.8,11111222 
TCOON,ioos:station:TCOON:127:1,2019-05-13T22:30:00Z,28.2598,-96.7737,0.0,16.5,11111222 
TCOON,ioos:station:TCOON:127:1,2019-05-13T23:30:00Z,28.2598,-96.7737,0.0,16.5,11111222 
TCOON,ioos:station:TCOON:127:1,2019-05-14T00:30:00Z,28.2598,-96.7737,0.0,16.5,11111222 
TCOON,ioos:station:TCOON:127:1,2019-05-14T01:30:00Z,28.2598,-96.7737,0.0,16.6,11111222 
TCOON,ioos:station:TCOON:127:1,2019-05-14T02:30:00Z,28.2598,-96.7737,0.0,16.8,11111222 
TCOON,ioos:station:TCOON:127:1,2019-05-14T03:30:00Z,28.2598,-96.7737,0.0,17.1,11111222 
TCOON,ioos:station:TCOON:127:1,2019-05-14T04:30:00Z,28.2598,-96.7737,0.0,17.0,11111222 
TCOON,ioos:station:TCOON:127:1,2019-05-14T05:30:00Z,28.2598,-96.7737,0.0,16.9,11111222 
TCOON,ioos:station:TCOON:127:1,2019-05-14T06:30:00Z,28.2598,-96.7737,0.0,16.9,11111222 
TCOON,ioos:station:TCOON:127:1,2019-05-14T07:30:00Z,28.2598,-96.7737,0.0,16.9,11111222 
TCOON,ioos:station:TCOON:127:1,2019-05-14T08:30:00Z,28.2598,-96.7737,0.0,17.0,11111222 
TCOON,ioos:station:TCOON:127:1,2019-05-14T09:30:00Z,28.2598,-96.7737,0.0,16.7,11111222 
TCOON,ioos:station:TCOON:127:1,2019-05-14T10:30:00Z,28.2598,-96.7737,0.0,16.1,11111222 
TCOON,ioos:station:TCOON:127:1,2019-05-14T11:30:00Z,28.2598,-96.7737,0.0,16.2,11111222 
TCOON,ioos:station:TCOON:127:1,2019-05-14T12:30:00Z,28.2598,-96.7737,0.0,16.1,11111222 
TCOON,ioos:station:TCOON:127:1,2019-05-14T13:30:00Z,28.2598,-96.7737,0.0,16.1,11111222 
TCOON,ioos:station:TCOON:127:1,2019-05-14T14:30:00Z,28.2598,-96.7737,0.0,16.1,11111222 
TCOON,ioos:station:TCOON:127:1,2019-05-14T15:30:00Z,28.2598,-96.7737,0.0,16.0,11111222 
TCOON,ioos:station:TCOON:127:1,2019-05-14T16:30:00Z,28.2598,-96.7737,0.0,15.8,11111222 
TCOON,ioos:station:TCOON:127:1,2019-05-14T17:30:00Z,28.2598,-96.7737,0.0,15.5,11111222 
TCOON,ioos:station:TCOON:127:1,2019-05-14T18:30:00Z,28.2598,-96.7737,0.0,15.3,11111222 
TCOON,ioos:station:TCOON:127:1,2019-05-14T19:30:00Z,28.2598,-96.7737,0.0,15.3,11111222 
TCOON,ioos:station:TCOON:127:1,2019-05-14T20:30:00Z,28.2598,-96.7737,0.0,15.2,11111222 
TCOON,ioos:station:TCOON:127:1,2019-05-14T21:30:00Z,28.2598,-96.7737,0.0,15.2,11111222 
TCOON,ioos:station:TCOON:127:1,2019-05-14T22:30:00Z,28.2598,-96.7737,0.0,15.1,11111222 
TCOON,ioos:station:TCOON:127:1,2019-05-14T23:30:00Z,28.2598,-96.7737,0.0,15.0,11111222 
TCOON,ioos:station:TCOON:127:1,2019-05-15T00:30:00Z,28.2598,-96.7737,0.0,15.1,11111222 
TCOON,ioos:station:TCOON:127:1,2019-05-15T01:30:00Z,28.2598,-96.7737,0.0,15.0,11111222 
TCOON,ioos:station:TCOON:127:1,2019-05-15T02:30:00Z,28.2598,-96.7737,0.0,15.1,11111222 
TCOON,ioos:station:TCOON:127:1,2019-05-15T03:30:00Z,28.2598,-96.7737,0.0,15.1,11111222 
TCOON,ioos:station:TCOON:127:1,2019-05-15T04:30:00Z,28.2598,-96.7737,0.0,15.0,11111222 
TCOON,ioos:station:TCOON:127:1,2019-05-15T05:30:00Z,28.2598,-96.7737,0.0,15.0,11111222 
TCOON,ioos:station:TCOON:127:1,2019-05-15T06:30:00Z,28.2598,-96.7737,0.0,15.1,11111222 
TCOON,ioos:station:TCOON:127:1,2019-05-15T07:30:00Z,28.2598,-96.7737,0.0,15.0,11111222 
TCOON,ioos:station:TCOON:127:1,2019-05-15T08:30:00Z,28.2598,-96.7737,0.0,14.9,11111222 
TCOON,ioos:station:TCOON:127:1,2019-05-15T09:30:00Z,28.2598,-96.7737,0.0,15.0,11111222 
TCOON,ioos:station:TCOON:127:1,2019-05-15T10:30:00Z,28.2598,-96.7737,0.0,14.9,11111222 
TCOON,ioos:station:TCOON:127:1,2019-05-15T11:30:00Z,28.2598,-96.7737,0.0,14.8,11111222 
TCOON,ioos:station:TCOON:127:1,2019-05-15T12:30:00Z,28.2598,-96.7737,0.0,14.9,11111222 
TCOON,ioos:station:TCOON:127:1,2019-05-15T13:30:00Z,28.2598,-96.7737,0.0,14.8,11111222 
TCOON,ioos:station:TCOON:127:1,2019-05-15T14:30:00Z,28.2598,-96.7737,0.0,14.7,11111222 
TCOON,ioos:station:TCOON:127:1,2019-05-15T15:30:00Z,28.2598,-96.7737,0.0,14.6,11111222 
TCOON,ioos:station:TCOON:127:1,2019-05-15T16:30:00Z,28.2598,-96.7737,0.0,14.6,11111222 
TCOON,ioos:station:TCOON:127:1,2019-05-15T17:30:00Z,28.2598,-96.7737,0.0,14.5,11111222 
TCOON,ioos:station:TCOON:127:1,2019-05-15T18:30:00Z,28.2598,-96.7737,0.0,14.5,11111222 
TCOON,ioos:station:TCOON:127:1,2019-05-15T19:30:00Z,28.2598,-96.7737,0.0,14.5,11111222 
TCOON,ioos:station:TCOON:127:1,2019-05-15T20:30:00Z,28.2598,-96.7737,0.0,14.5,11111222 
TCOON,ioos:station:TCOON:127:1,2019-05-15T21:30:00Z,28.2598,-96.7737,0.0,14.5,11111222 
TCOON,ioos:station:TCOON:127:1,2019-05-15T22:30:00Z,28.2598,-96.7737,0.0,14.5,11111222 
TCOON,ioos:station:TCOON:127:1,2019-05-15T23:30:00Z,28.2598,-96.7737,0.0,14.6,11111222 
TCOON,ioos:station:TCOON:127:1,2019-05-16T00:30:00Z,28.2598,-96.7737,0.0,14.7,11111222 
TCOON,ioos:station:TCOON:127:1,2019-05-16T01:30:00Z,28.2598,-96.7737,0.0,14.7,11111222 
TCOON,ioos:station:TCOON:127:1,2019-05-16T02:30:00Z,28.2598,-96.7737,0.0,14.6,11111222 
TCOON,ioos:station:TCOON:127:1,2019-05-16T03:30:00Z,28.2598,-96.7737,0.0,14.9,11111222 
TCOON,ioos:station:TCOON:127:1,2019-05-16T04:30:00Z,28.2598,-96.7737,0.0,14.8,11111222 
TCOON,ioos:station:TCOON:127:1,2019-05-16T05:30:00Z,28.2598,-96.7737,0.0,14.8,11111222 
TCOON,ioos:station:TCOON:127:1,2019-05-16T06:30:00Z,28.2598,-96.7737,0.0,14.7,11111222 
TCOON,ioos:station:TCOON:127:1,2019-05-16T07:30:00Z,28.2598,-96.7737,0.0,14.6,11111222 
TCOON,ioos:station:TCOON:127:1,2019-05-16T08:30:00Z,28.2598,-96.7737,0.0,14.6,11111222 
TCOON,ioos:station:TCOON:127:1,2019-05-16T09:30:00Z,28.2598,-96.7737,0.0,14.6,11111222 
TCOON,ioos:station:TCOON:127:1,2019-05-16T10:30:00Z,28.2598,-96.7737,0.0,14.6,11111222 
TCOON,ioos:station:TCOON:127:1,2019-05-16T11:30:00Z,28.2598,-96.7737,0.0,14.5,11111222 
TCOON,ioos:station:TCOON:127:1,2019-05-16T12:30:00Z,28.2598,-96.7737,0.0,14.5,11111222 
TCOON,ioos:station:TCOON:127:1,2019-05-16T13:30:00Z,28.2598,-96.7737,0.0,14.5,11111222 
TCOON,ioos:station:TCOON:127:1,2019-05-16T14:30:00Z,28.2598,-96.7737,0.0,14.5,11111222 
TCOON,ioos:station:TCOON:127:1,2019-05-16T15:30:00Z,28.2598,-96.7737,0.0,14.5,11111222 
TCOON,ioos:station:TCOON:127:1,2019-05-16T16:30:00Z,28.2598,-96.7737,0.0,14.5,11111222 
TCOON,ioos:station:TCOON:127:1,2019-05-16T17:30:00Z,28.2598,-96.7737,0.0,14.5,11111222 
TCOON,ioos:station:TCOON:127:1,2019-05-16T18:30:00Z,28.2598,-96.7737,0.0,14.5,11111222 
TCOON,ioos:station:TCOON:127:1,2019-05-16T19:30:00Z,28.2598,-96.7737,0.0,14.5,11111222 
TCOON,ioos:station:TCOON:127:1,2019-05-16T20:30:00Z,28.2598,-96.7737,0.0,14.5,11111222 
TCOON,ioos:station:TCOON:127:1,2019-05-16T21:30:00Z,28.2598,-96.7737,0.0,14.4,11111222 
TCOON,ioos:station:TCOON:127:1,2019-05-16T22:30:00Z,28.2598,-96.7737,0.0,14.2,11111222 
TCOON,ioos:station:TCOON:127:1,2019-05-16T23:30:00Z,28.2598,-96.7737,0.0,14.1,11111222 
TCOON,ioos:station:TCOON:127:1,2019-05-17T00:30:00Z,28.2598,-96.7737,0.0,14.2,11111222 
TCOON,ioos:station:TCOON:127:1,2019-05-17T01:30:00Z,28.2598,-96.7737,0.0,14.1,11111222 
TCOON,ioos:station:TCOON:127:1,2019-05-17T02:30:00Z,28.2598,-96.7737,0.0,14.4,11111222 
TCOON,ioos:station:TCOON:127:1,2019-05-17T03:30:00Z,28.2598,-96.7737,0.0,14.8,11111222 
TCOON,ioos:station:TCOON:127:1,2019-05-17T04:30:00Z,28.2598,-96.7737,0.0,14.9,11111222 
TCOON,ioos:station:TCOON:127:1,2019-05-17T06:00:00Z,28.2598,-96.7737,0.0,15.1,11111222 
TCOON,ioos:station:TCOON:127:1,2019-05-17T06:30:00Z,28.2598,-96.7737,0.0,15.1,11111222 
TCOON,ioos:station:TCOON:127:1,2019-05-17T07:30:00Z,28.2598,-96.7737,0.0,15.5,11111222 
TCOON,ioos:station:TCOON:127:1,2019-05-17T08:30:00Z,28.2598,-96.7737,0.0,15.3,11111222 
TCOON,ioos:station:TCOON:127:1,2019-05-17T09:30:00Z,28.2598,-96.7737,0.0,15.3,11111222 
TCOON,ioos:station:TCOON:127:1,2019-05-17T10:30:00Z,28.2598,-96.7737,0.0,15.2,11111222 
TCOON,ioos:station:TCOON:127:1,2019-05-17T11:30:00Z,28.2598,-96.7737,0.0,15.2,11111222 
TCOON,ioos:station:TCOON:127:1,2019-05-17T12:30:00Z,28.2598,-96.7737,0.0,15.2,11111222 
TCOON,ioos:station:TCOON:127:1,2019-05-17T13:30:00Z,28.2598,-96.7737,0.0,15.1,11111222 
TCOON,ioos:station:TCOON:127:1,2019-05-17T14:30:00Z,28.2598,-96.7737,0.0,15.0,11111222 
TCOON,ioos:station:TCOON:127:1,2019-05-17T15:30:00Z,28.2598,-96.7737,0.0,14.9,11111222 
TCOON,ioos:station:TCOON:127:1,2019-05-17T16:30:00Z,28.2598,-96.7737,0.0,14.8,11111222 
TCOON,ioos:station:TCOON:127:1,2019-05-17T17:30:00Z,28.2598,-96.7737,0.0,14.8,11111222 
TCOON,ioos:station:TCOON:127:1,2019-05-17T18:30:00Z,28.2598,-96.7737,0.0,14.7,11111222 
TCOON,ioos:station:TCOON:127:1,2019-05-17T19:30:00Z,28.2598,-96.7737,0.0,14.6,11111222 
TCOON,ioos:station:TCOON:127:1,2019-05-17T20:30:00Z,28.2598,-96.7737,0.0,14.5,11111222 
TCOON,ioos:station:TCOON:127:1,2019-05-17T21:30:00Z,28.2598,-96.7737,0.0,14.4,11111222 
TCOON,ioos:station:TCOON:127:1,2019-05-17T22:30:00Z,28.2598,-96.7737,0.0,14.3,11111222 
TCOON,ioos:station:TCOON:127:1,2019-05-17T23:30:00Z,28.2598,-96.7737,0.0,14.2,11111222 
TCOON,ioos:station:TCOON:127:1,2019-05-18T00:30:00Z,28.2598,-96.7737,0.0,14.3,11111222 